Location: Newark
(52.6086°N, 2.1080°W)
Time: 15:02:10
(UTC+00:00)

ISS - Visible Passes

Search period start: 27 January 2020 00:00
Search period end: 06 February 2020 00:00
Orbit: 416 x 423 km, 51.6° (Epoch: 28 January)

Date Brightness Start Highest point End Pass type
(mag) Time Alt. Az. Time Alt. Az. Time Alt. Az.
27 Jan -3.4 18:14:28 10° WSW 18:17:48 56° SSE 18:19:20 28° E visible
27 Jan -1.0 19:51:08 10° W 19:52:18 20° W 19:52:18 20° W visible
28 Jan -3.0 17:27:06 10° SW 17:30:21 45° SSE 17:33:37 10° E visible
28 Jan -3.6 19:03:37 10° W 19:06:44 70° SW 19:06:44 70° SW visible
29 Jan -3.7 18:16:08 10° W 18:19:31 74° S 18:21:10 28° E visible
29 Jan -1.1 19:52:54 10° W 19:54:08 21° W 19:54:08 21° W visible
30 Jan -3.5 17:28:38 10° WSW 17:32:00 67° S 17:35:22 10° E visible
30 Jan -3.6 19:05:22 10° W 19:08:34 67° SW 19:08:34 67° SW visible
31 Jan -3.7 18:17:50 10° W 18:21:13 76° S 18:23:01 25° ESE visible
31 Jan -1.1 19:54:39 10° W 19:55:59 20° W 19:55:59 20° W visible
01 Feb -3.6 17:30:17 10° W 17:33:41 77° S 17:37:03 10° E visible
01 Feb -3.2 19:07:04 10° W 19:10:22 48° SSW 19:10:28 48° S visible
02 Feb -3.3 18:19:30 10° W 18:22:51 60° SSW 18:25:01 20° ESE visible
02 Feb -1.0 19:56:36 10° W 19:57:59 17° WSW 19:57:59 17° WSW visible
03 Feb -3.5 17:31:56 10° W 17:35:19 69° S 17:38:40 10° ESE visible
03 Feb -2.2 19:08:51 10° W 19:11:49 29° SSW 19:12:36 26° S visible
04 Feb -2.5 18:21:10 10° W 18:24:21 38° SSW 18:27:19 11° SE visible
04 Feb -0.6 19:59:41 10° SW 20:00:18 11° SW 20:00:18 11° SW visible
05 Feb -2.8 17:33:33 10° W 17:36:51 49° SSW 17:40:07 10° SE visible
05 Feb -1.0 19:11:01 10° WSW 19:13:06 15° SW 19:15:09 10° S visible
